Weather History for Marrakech, Morocco

Change the Weather History Date:

Monday, February 25, 2013

  Actual Average Record
Temperature  
Mean Temperature 58 °F -  
Max Temperature 75 °F 72 °F 80 °F (1997)
Min Temperature 41 °F 49 °F 41 °F (2012)
Degree Days  
Heating Degree Days 7    
Growing Degree Days 8 (Base 50)    
Moisture  
Dew Point 41 °F    
Average Humidity 60    
Maximum Humidity 100    
Minimum Humidity 13    
Precipitation  
Precipitation 0.00 in 0.05 in - ()
Sea Level Pressure  
Sea Level Pressure 30.05 in    
Wind  
Wind Speed 7 mph ()    
Max Wind Speed 12 mph    
Max Gust Speed -    
Visibility 4.9 miles    
Events      
Averages and records for this station are not official NWS values.
T = Trace of Precipitation, MM = Missing Value Source: Averaged Metar Reports

Daily Weather History Graph

Daily Weather History Graph

Search for Another Location

Airport:

Trip Planner

Search our weather history database for the weather conditions in past years. The results will help you decide how hot, cold, wet, or windy it might be!

Date:

Astronomy

Feb. 25, 2013 Rise Set
Actual Time 7:03 AM WET 6:27 PM WET
Civil Twilight 6:39 AM WET 6:51 PM WET
Nautical Twilight 6:10 AM WET 7:20 PM WET
Astronomical Twilight 5:42 AM WET 7:48 PM WET
Moon 6:23 PM WET (2/25) 6:27 AM WET (2/25)
Length of Visible Light 12h 12m
Length of Day
11h 23m
Full, 100% of the Moon is Illuminated
Feb 25
Full
Feb 25
Full
Mar 4
Last Quarter
Mar 11
New
Mar 19
First Quarter

Hourly Weather History & Observations

Time (WET) Temp. Windchill Dew Point Humidity Pressure Visibility Wind Dir Wind Speed Gust Speed Precip Events Conditions
12:00 AM 48 °F - 43 °F 77% 30.18 in 6 mi ENE 6.9 mph - -  
12:00 AM 48.2 °F - 42.8 °F 82% 30.15 in - ENE 6.9 mph - N/A   Clear
1:00 AM 48.2 °F - 44.6 °F 87% 30.12 in - East 9.2 mph - N/A   Clear
1:30 AM 46.4 °F 41.9 °F 44.6 °F 93% 30.12 in - East 9.2 mph - N/A   Clear
2:00 AM 46.4 °F 42.4 °F 42.8 °F 87% 30.12 in - East 8.1 mph - N/A   Clear
2:30 AM 46.4 °F 42.4 °F 44.6 °F 93% 30.12 in - East 8.1 mph - N/A   Clear
3:00 AM 46 °F - 44 °F 89% 30.15 in 6 mi ENE 9.2 mph - -  
3:00 AM 46.4 °F 42.4 °F 44.6 °F 93% 30.12 in - ENE 8.1 mph - N/A   Clear
3:30 AM 46.4 °F 42.4 °F 42.8 °F 87% 30.12 in - East 8.1 mph - N/A   Clear
4:00 AM 44.6 °F 40.7 °F 42.8 °F 93% 30.12 in - East 6.9 mph - N/A   Clear
4:30 AM 44.6 °F 40.7 °F 42.8 °F 93% 30.09 in - East 6.9 mph - N/A   Clear
5:00 AM 42.8 °F 39.3 °F 41.0 °F 93% 30.09 in - East 5.8 mph - N/A   Clear
5:30 AM 42.8 °F 38.6 °F 42.8 °F 100% 30.09 in - East 6.9 mph - N/A   Clear
6:00 AM 42 °F - 42 °F 98% 30.16 in 6 mi East 5.8 mph - -  
6:00 AM 42.8 °F 39.3 °F 41.0 °F 93% 30.09 in - East 5.8 mph - N/A   Clear
6:30 AM 41.0 °F 36.4 °F 41.0 °F 100% 30.09 in - East 6.9 mph - N/A   Clear
7:00 AM 41.0 °F 36.4 °F 41.0 °F 100% 30.09 in 4.3 mi East 6.9 mph - N/A   Unknown
7:30 AM 42.8 °F 39.3 °F 41.0 °F 93% 30.09 in 4.3 mi East 5.8 mph - N/A   Unknown
8:00 AM 44.6 °F 41.4 °F 44.6 °F 100% 30.09 in 3.7 mi East 5.8 mph - N/A   Unknown
8:30 AM 48.2 °F - 44.6 °F 87% 30.09 in 3.7 mi East 8.1 mph - N/A   Unknown
9:00 AM 52 °F - 44 °F 66% 30.12 in 4 mi East 8.1 mph - -  
9:00 AM 51.8 °F - 44.6 °F 76% 30.09 in 3.7 mi East 8.1 mph - N/A   Unknown
9:30 AM 53.6 °F - 44.6 °F 72% 30.09 in 3.7 mi East 8.1 mph - N/A   Unknown
10:00 AM 55.4 °F - 44.6 °F 67% 30.09 in 3.7 mi East 9.2 mph - N/A   Unknown
10:30 AM 59.0 °F - 44.6 °F 59% 30.09 in 5.0 mi ENE 8.1 mph - N/A   Unknown
11:00 AM 60.8 °F - 44.6 °F 55% 30.06 in 5.0 mi NE 9.2 mph - N/A   Unknown
11:30 AM 62.6 °F - 46.4 °F 55% 30.06 in 5.0 mi ENE 8.1 mph - N/A   Unknown
12:00 PM 66 °F - 46 °F 36% 30.02 in 6 mi ENE 5.8 mph - -  
12:00 PM 66.2 °F - 44.6 °F 46% 30.06 in 5.6 mi ENE 5.8 mph - N/A   Unknown
12:30 PM 68.0 °F - 39.2 °F 35% 30.04 in - NE 5.8 mph - N/A   Clear
1:00 PM 69.8 °F - 39.2 °F 33% 30.01 in - ENE 5.8 mph - N/A   Clear
1:30 PM 71.6 °F - 35.6 °F 27% 30.01 in - North 5.8 mph - N/A   Clear
2:00 PM 73.4 °F - 33.8 °F 23% 30.01 in - ENE 9.2 mph - N/A   Clear
2:30 PM 73.4 °F - 37.4 °F 27% 29.98 in - NE 6.9 mph - N/A   Clear
3:00 PM 75 °F - 35 °F 13% 29.92 in 6 mi ENE 8.1 mph - -  
3:00 PM 75.2 °F - 35.6 °F 24% 29.98 in - East 8.1 mph - N/A   Clear
3:30 PM 73.4 °F - 35.6 °F 25% 29.98 in - East 10.4 mph - N/A   Clear
4:00 PM 73.4 °F - 35.6 °F 25% 29.95 in - ENE 11.5 mph - N/A   Clear
4:30 PM 73.4 °F - 35.6 °F 25% 29.95 in - ENE 10.4 mph - N/A   Clear
5:00 PM 73.4 °F - 33.8 °F 23% 29.95 in - ENE 10.4 mph - N/A   Clear
5:30 PM 73.4 °F - 33.8 °F 23% 29.95 in - ENE 9.2 mph - N/A   Clear
6:00 PM 71 °F - 35 °F 16% 29.92 in 6 mi NE 10.4 mph - -  
6:00 PM 71.6 °F - 33.8 °F 25% 29.98 in - NE 10.4 mph - N/A   Clear
6:30 PM 68.0 °F - 33.8 °F 28% 29.98 in - NE 10.4 mph - N/A   Clear
7:00 PM 64.4 °F - 35.6 °F 34% 29.98 in - NE 9.2 mph - N/A   Clear
7:30 PM 62.6 °F - 37.4 °F 39% 30.01 in 5.6 mi ENE 5.8 mph - N/A   Unknown
8:00 PM 59.0 °F - 39.2 °F 48% 30.01 in 5.0 mi ENE 5.8 mph - N/A   Unknown
8:30 PM 59.0 °F - 39.2 °F 48% 30.01 in 5.0 mi ENE 4.6 mph - N/A   Unknown
9:00 PM 57 °F - 40 °F 42% 29.99 in 4 mi East 5.8 mph - -   Clear
9:00 PM 57.2 °F - 41.0 °F 55% 30.01 in 4.3 mi ESE 5.8 mph - N/A   Unknown
9:30 PM 57.2 °F - 39.2 °F 51% 30.01 in 4.3 mi NE 5.8 mph - N/A   Unknown
10:00 PM 57.2 °F - 42.8 °F 59% 29.98 in 5.6 mi ENE 6.9 mph - N/A   Unknown
10:30 PM 53.6 °F - 41.0 °F 62% 29.98 in 5.0 mi ENE 6.9 mph - N/A   Unknown
11:00 PM 55.4 °F - 44.6 °F 67% 29.98 in - ENE 6.9 mph - N/A   Clear
11:30 PM 53.6 °F - 44.6 °F 72% 29.98 in 5.6 mi East 5.8 mph - N/A   Unknown